Location: Stillwell
(40.4602°N, 82.0928°W)
Time: 06:52:35
(UTC-05:00)

Daily predictions for brighter satellites

Satellite Brightness Start Highest point End
(mag) Time Altitude Azimuth Time Altitude Azimuth Time Altitude Azimuth
Cosmos 494 Rocket 4.0 17:22:15 10° NNW 17:27:28 62° ENE 17:32:40 10° SSE
IRS-1A Rocket 4.2 17:22:30 10° SSE 17:27:59 84° ENE 17:33:32 10° NNW
Cosmos 2218 Rocket 4.0 17:25:23 10° N 17:31:38 67° E 17:37:46 10° SSE
SPOT 3 Rocket 3.7 17:28:20 10° SE 17:33:19 50° ENE 17:38:18 10° N
Genesis I 3.6 17:31:23 10° NNW 17:35:08 40° NE 17:38:49 10° ESE
CZ-3B DEB 2.0 17:32:42 10° SW 17:35:57 77° NW 17:44:12 10° NE
BREEZE M DEB (TANK) 4.2 17:24:26 10° SW 17:36:22 46° SSE 17:40:04 10° ENE
COSMOS 2487 3.4 17:35:56 10° N 17:39:05 28° ENE 17:42:13 10° SE
USA 32 4.0 17:34:53 10° S 17:40:06 85° E 17:45:21 10° N
Cosmos 1833 Rocket 3.6 17:35:53 10° N 17:40:36 26° NE 17:45:16 10° ESE
CZ-3A R/B 3.8 17:39:12 10° W 17:43:46 53° NNW 18:06:15 10° ENE
Cosmos 2082 Rocket 2.8 17:40:32 10° N 17:45:38 33° ENE 17:50:44 10° ESE
Abrixas 3.4 17:44:02 10° NW 17:46:43 30° NNE 17:49:02 12° E
USA 116 4.4 17:44:38 10° NNE 17:50:02 78° ESE 17:55:05 10° S
Cosmos 1544 Rocket 3.9 17:46:18 10° NNW 17:50:46 73° W 17:55:12 10° S
Cosmos 1743 3.9 17:49:57 10° NNE 17:53:00 22° ENE 17:56:00 10° SE
Timation 2 Rocket 4.4 17:46:46 10° NNW 17:53:22 48° ENE 17:59:59 10° SE
Cosmos 1500 3.4 17:51:41 10° N 17:55:24 47° E 17:59:08 10° SSE
COSMO-SKYMED 1 3.5 17:52:24 10° NE 17:56:10 28° E 17:59:54 10° SSE
BREEZE-M DEB (TANK) 3.5 17:56:24 10° WNW 17:58:05 19° NNW 17:59:30 12° NNE
IDEFIX/ARIANE 42P 2.5 17:55:05 10° SSE 18:00:17 86° ENE 18:05:30 10° NNW
Cosmos 1484 Rocket 3.3 17:59:23 10° SE 18:02:45 33° ENE 18:06:07 10° N
Cosmos 1975 2.7 17:58:43 10° N 18:02:47 77° E 18:06:49 10° S
CZ-4 R/B 2.1 18:01:21 10° S 18:05:28 59° W 18:09:34 10° NNW
ASTRO F (AKARI) 4.3 18:03:32 10° NNE 18:06:39 56° ESE 18:09:46 10° S
MSX 3.8 18:01:01 10° SSE 18:06:42 67° ENE 18:12:24 10° N
NOSS 2-1 (D) 3.8 18:03:34 10° S 18:07:09 40° ESE 18:09:43 18° NE
NOSS 2-1 (C) 3.8 18:04:15 10° S 18:07:50 40° ESE 18:10:22 19° ENE
Thor Agena Rocket 3.7 18:02:49 10° NNE 18:08:04 79° WNW 18:13:19 10° SSW
Cosmos 1536 Rocket 4.0 18:07:08 10° SSW 18:11:34 67° W 18:16:03 10° N
Cosmos 1025 Rocket 4.0 18:08:07 10° SE 18:11:46 26° E 18:13:51 18° NE
Cosmos 921 Rocket 3.2 18:08:36 10° S 18:12:41 49° ESE 18:16:16 14° NNE
Meteor 1-13 Rocket 4.3 18:08:29 10° S 18:14:01 57° E 18:19:43 10° NNE
SMAP 3.5 18:11:07 10° S 18:15:43 65° WSW 18:20:22 10° NNW
ISS -0.9 18:15:03 10° NW 18:16:46 13° N 18:17:57 12° NNE
SL-8 R/B 4.4 18:14:44 10° W 18:19:19 45° NNW 18:22:14 21° NE
SL-24 DEB 4.2 18:15:17 10° N 18:20:02 86° E 18:24:43 10° S
YAOGAN 1 3.2 18:16:10 10° S 18:20:26 60° W 18:24:44 10° NNW
Nadezhda 3 Rocket 3.9 18:15:40 10° S 18:21:49 72° E 18:28:05 10° NNE
Meteor 2-21 Rocket 4.4 18:17:03 10° N 18:23:15 68° E 18:29:20 10° SSE
Meteor 2-16 Rocket 4.5 18:19:03 10° N 18:25:03 56° E 18:31:00 10° SSE
Meteor 2-4 Rocket 4.0 18:20:13 10° SSE 18:25:09 39° E 18:29:02 15° NNE
NOSS 2-1 (E) 3.4 18:22:39 10° SSW 18:26:26 60° ESE 18:28:29 27° NE
GRACE-2 3.7 18:27:08 10° S 18:29:54 75° E 18:31:04 31° N
GRACE-1 3.7 18:27:34 10° S 18:30:20 78° E 18:31:33 30° N
USA 234 3.8 18:37:48 17° NE 18:42:42 51° NNW 18:48:58 10° WSW
SKYMED 2 3.6 18:40:12 11° N 18:44:22 83° WNW 18:48:42 10° SSW
Tiangong 1 1.2 18:44:12 10° W 18:47:00 60° NW 18:47:00 60° NW
Delta 2 Rocket 4.0 18:44:56 10° WSW 18:48:28 41° S 18:49:28 34° SE
NOAA 12 4.0 18:45:19 10° SSE 18:50:29 59° ENE 18:55:40 10° N
Cosmos 2297 4.2 18:47:35 10° SW 18:53:06 57° WNW 18:57:52 14° NNE
FALCON 9 R/B 3.8 18:30:32 10° WSW 18:55:55 64° S 19:00:04 29° ESE
Cosmos 2056 Rocket 3.5 18:51:12 10° S 18:56:30 65° ESE 18:58:18 40° NE
Okean 1-7 Rocket 4.2 18:53:36 10° SSW 18:58:02 58° W 19:02:25 10° N
Cosmos 407 Rocket 4.2 18:53:39 10° N 18:57:09 34° NNE 18:57:09 34° NNE
NOSS 3-4 (A) 3.8 18:51:55 10° NNW 18:58:53 63° NE 19:03:39 23° SE
NOSS 3-4 (C) 3.8 18:52:01 10° NNW 18:58:59 62° NE 19:03:38 24° SE
Cosmos 1892 Rocket 4.3 18:55:38 10° SSE 18:58:33 37° SE 18:58:33 37° SE
Cosmos 2278 Rocket 4.2 18:59:42 10° WSW 19:04:13 24° NW 19:08:46 10° N
Cosmos 1624 Rocket 3.9 19:04:31 10° SSW 19:09:43 89° WNW 19:11:26 44° NNE
METEOR-M 4.0 19:04:32 10° SSE 19:09:51 76° ENE 19:15:12 10° N
Cosmos 1666 4.5 19:12:14 23° S 19:12:14 23° S 19:13:44 10° S
Cosmos 1934 Rocket 3.9 19:04:48 10° N 19:11:03 87° E 19:17:21 10° S
Cosmos 1371 Rocket 4.4 19:09:49 10° SSW 19:15:08 65° WNW 19:17:49 30° N
Meteor 2-8 Rocket 4.4 19:14:06 10° S 19:20:10 86° W 19:24:52 18° N
GEOS 3 Rocket 3.4 19:23:57 78° SE 19:24:18 87° NE 19:29:27 10° NW
Cosmos 1833 Rocket 3.7 19:19:21 10° NW 19:24:43 46° WSW 19:30:02 10° S
Cosmos 1606 Rocket 4.0 19:22:59 10° NNW 19:27:25 62° W 19:31:49 10° S
Okean 2 4.4 19:24:04 10° SSW 19:26:54 41° SSW 19:26:54 41° SSW
Cosmos 2082 Rocket 3.7 19:24:36 10° NW 19:29:41 35° WSW 19:34:47 10° SSW
Cosmos 1605 Rocket 4.3 19:46:25 10° NNW 19:52:37 64° W 19:58:42 10° S
Cosmos 2369 Rocket 4.0 20:02:48 10° SSW 20:04:40 22° SSW 20:04:40 22° SSW
CZ-3B DEB 4.4 20:06:34 10° WNW 20:12:45 35° N 20:13:40 35° NNE
